SQ2CDE-4 Weather Reports


time (UTC)temp
C
wind
direction
speed
KPH
gust
KPH
rain 1hr
cm
rain 24hr
cm
rain mn
cm
humidity
%
barometer
mb
20260507002559 6 350 12.9 0.0 0.00 0.00 0.00 93 1009.0
20260507001426 6 350 12.9 0.0 0.00 0.00 0.00 93 1009.0
20260507000247 6 350 16.1 0.0 0.00 0.00 0.00 93 1009.0
20260506235110 6 350 16.1 0.0 0.00 0.00 0.00 93 1009.0
20260506233933 6 350 16.1 0.0 0.00 0.00 0.00 93 1009.0
20260506232559 6 10 16.1 0.0 0.00 0.00 0.00 93 1009.0
20260506231420 6 10 16.1 0.0 0.00 0.00 0.00 93 1009.0
20260506230245 6 10 12.9 0.0 0.00 0.00 0.00 100 1009.0
20260506225106 6 10 12.9 0.0 0.00 0.00 0.00 100 1009.0
20260506223749 6 10 12.9 0.0 0.00 0.00 0.00 100 1009.0
20260506222610 6 10 12.9 0.0 0.00 0.00 0.00 93 1009.0
20260506221427 6 10 12.9 0.0 0.00 0.00 0.00 93 1009.0
20260506220250 6 10 12.9 0.0 0.00 0.00 0.00 93 1009.0
20260506215055 6 10 12.9 0.0 0.00 0.00 0.00 93 1009.0
20260506212224 6 20 12.9 0.0 0.00 0.00 0.00 93 1009.0
20260506211041 6 20 12.9 0.0 0.00 0.00 0.00 93 1009.0
20260506205904 6 10 16.1 0.0 0.00 0.00 0.00 93 1008.0
20260506204528 6 10 16.1 0.0 0.00 0.00 0.00 93 1008.0
20260506203355 6 20 16.1 0.0 0.00 0.00 0.00 100 1008.0
20260506202218 6 20 16.1 0.0 0.00 0.00 0.00 100 1008.0
20260506200903 6 20 16.1 0.0 0.00 0.00 0.00 100 1008.0
20260506195730 6 20 19.3 0.0 0.00 0.00 0.00 100 1008.0
20260506194553 6 20 19.3 0.0 0.00 0.00 0.00 100 1008.0
20260506193222 7 20 19.3 0.0 0.00 0.00 0.00 93 1008.0
20260506192040 7 20 19.3 0.0 0.00 0.00 0.00 93 1008.0
20260506190856 7 20 19.3 0.0 0.00 0.00 0.00 93 1008.0
20260506185201 7 20 19.3 0.0 0.00 0.00 0.00 93 1008.0
20260506184019 7 20 19.3 0.0 0.00 0.00 0.00 93 1008.0
20260506182836 7 20 19.3 0.0 0.00 0.00 0.00 93 1008.0
20260506181653 7 20 19.3 0.0 0.00 0.00 0.00 93 1008.0
20260506180508 7 360 19.3 0.0 0.00 0.00 0.00 93 1007.0
20260506175329 7 360 19.3 0.0 0.00 0.00 0.00 93 1007.0
20260506174148 7 360 19.3 0.0 0.00 0.00 0.00 93 1007.0
20260506173001 7 10 19.3 0.0 0.00 0.00 0.00 93 1007.0
20260506171826 7 10 19.3 0.0 0.00 0.00 0.00 93 1007.0
20260506170653 7 10 19.3 0.0 0.00 0.00 0.00 93 1007.0
20260506165348 7 10 19.3 0.0 0.00 0.00 0.00 93 1007.0
20260506164157 7 10 19.3 0.0 0.00 0.00 0.00 93 1007.0
20260506162849 7 10 16.1 0.0 0.00 0.00 0.00 93 1007.0
20260506160857 7 10 16.1 0.0 0.00 0.00 0.00 93 1007.0
20260506155705 7 20 16.1 0.0 0.00 0.00 0.00 93 1007.0
20260506154530 7 20 16.1 0.0 0.00 0.00 0.00 93 1007.0
20260506153400 7 360 19.3 0.0 0.00 0.00 0.00 93 1007.0
20260506152038 7 360 19.3 0.0 0.00 0.00 0.00 93 1007.0
20260506150901 7 360 19.3 0.0 0.00 0.00 0.00 93 1007.0
20260506145723 7 20 16.1 0.0 0.00 0.00 0.00 87 1008.0
20260506144532 7 20 16.1 0.0 0.00 0.00 0.00 87 1008.0
20260506143355 7 20 16.1 0.0 0.00 0.00 0.00 93 1008.0
20260506142016 7 20 16.1 0.0 0.00 0.00 0.00 93 1008.0
20260506140841 7 20 16.1 0.0 0.00 0.00 0.00 93 1008.0
20260506135702 7 20 19.3 0.0 0.00 0.00 0.00 87 1007.0
20260506134028 7 20 19.3 0.0 0.00 0.00 0.00 87 1007.0
20260506132723 7 20 22.5 0.0 0.00 0.00 0.00 87 1007.0
20260506131552 7 20 22.5 0.0 0.00 0.00 0.00 87 1007.0
20260506130232 7 20 25.7 0.0 0.00 0.00 0.00 87 1008.0
20260506125032 7 20 25.7 0.0 0.00 0.00 0.00 87 1008.0
20260506123901 7 20 25.7 0.0 0.00 0.00 0.00 87 1008.0
20260506122401 7 20 22.5 0.0 0.00 0.00 0.00 81 1007.0
20260506121042 7 20 22.5 0.0 0.00 0.00 0.00 81 1007.0
20260506115859 7 20 19.3 0.0 0.00 0.00 0.00 87 1008.0
20260506114717 7 20 19.3 0.0 0.00 0.00 0.00 87 1008.0
20260506113402 7 20 19.3 0.0 0.00 0.00 0.00 87 1007.0
20260506112201 7 20 19.3 0.0 0.00 0.00 0.00 87 1007.0
20260506110840 7 20 19.3 0.0 0.00 0.00 0.00 87 1007.0
20260506105701 7 20 16.1 0.0 0.00 0.00 0.00 87 1007.0
20260506104713 7 20 16.1 0.0 0.00 0.00 0.00 87 1007.0
20260506101445 8 40 22.5 0.0 0.00 0.00 0.00 81 1007.0
20260506100308 7 50 19.3 0.0 0.00 0.00 0.00 87 1007.0
20260506095059 7 50 19.3 0.0 0.00 0.00 0.00 87 1007.0
20260506093927 7 50 19.3 0.0 0.00 0.00 0.00 87 1007.0
20260506092752 7 40 19.3 0.0 0.00 0.00 0.00 87 1007.0
20260506091615 7 40 19.3 0.0 0.00 0.00 0.00 87 1007.0
20260506090422 8 40 22.5 0.0 0.00 0.00 0.00 87 1007.0
20260506085248 8 40 22.5 0.0 0.00 0.00 0.00 87 1007.0
20260506084114 8 40 22.5 0.0 0.00 0.00 0.00 87 1007.0
20260506082935 8 50 19.3 0.0 0.00 0.00 0.00 87 1007.0
20260506081454 8 50 19.3 0.0 0.00 0.00 0.00 87 1007.0
20260506081040 8 50 19.3 0.0 0.00 0.00 0.00 87 1007.0
20260506080902 8 50 19.3 0.0 0.00 0.00 0.00 87 1007.0
20260506080804 8 50 19.3 0.0 0.00 0.00 0.00 87 1007.0
20260506072937 8 20 16.1 0.0 0.00 0.00 0.00 87 1008.0
20260506072413 8 20 16.1 0.0 0.00 0.00 0.00 87 1008.0
20260506071109 8 20 12.9 0.0 0.00 0.00 0.00 93 1008.0
20260506062022 8 30 12.9 0.0 0.00 0.00 0.00 93 1008.0
20260506061014 8 30 12.9 0.0 0.00 0.00 0.00 93 1008.0